Location: Eaton Estates
(41.3089°N, 82.0057°W)
Time: 11:40:34
(UTC+00:00)

JB-3 - Pass Details

Date: 17 June 2021
Orbit: 527 x 587 km, 97.3° (Epoch: 27 July)

Event Time Altitude Azimuth Distance (km) Brightness Sun altitude
Rises 02:24:29 0° 16° (NNE) 2,721 8.3 -12.5°
Reaches altitude 10° 02:26:39 10° 21° (NNE) 1,833 7.3 -12.7°
Maximum altitude 02:30:32 54° 100° (E) 681 4.5 -13.2°
Enters shadow 02:33:30 17° 174° (S) 1,467 6.0 -13.6°
